Location: Driftwood Observatory
(30.0611°N, 98.0028°W)
Time: 23:58:13
(UTC-05:00)

N. Korean satellite - Visible Passes

Search period start: 17 October 2018 00:00
Search period end: 27 October 2018 00:00
Orbit: 459 x 510 km, 97.2° (Epoch: 17 October)

Date Brightness Start Highest point End Pass type
(mag) Time Alt. Az. Time Alt. Az. Time Alt. Az.
17 Oct 9.0 19:48:58 10° SSW 19:52:09 27° W 19:55:22 10° NW visible
18 Oct 7.2 19:24:04 10° S 19:27:42 64° W 19:31:25 10° NNW visible
19 Oct 10.1 06:58:01 10° ENE 07:00:11 15° E 07:02:19 10° SE visible
20 Oct 10.1 20:10:17 10° SW 20:12:25 15° W 20:14:34 10° WNW visible
21 Oct 8.8 19:44:35 10° SSW 19:47:55 31° W 19:51:16 10° NNW visible
22 Oct 6.9 19:19:46 10° S 19:23:28 75° W 19:27:12 10° NNW visible
23 Oct 10.2 06:54:08 10° ENE 06:55:53 13° E 06:57:36 10° SE visible
24 Oct 9.9 20:05:41 10° SW 20:08:07 17° W 20:10:35 10° NW visible
25 Oct 8.5 19:40:11 10° SSW 19:43:37 36° W 19:47:05 10° NNW visible
26 Oct 9.3 07:13:07 10° NE 07:16:05 25° E 07:19:01 10° SSE visible
26 Oct 6.7 19:15:28 10° S 19:19:10 86° WSW 19:22:55 10° NNW visible
